Weather History for KSGF - October, 2013

Change the Weather History Date:

Sunday, October 13, 2013

  Actual Average Record
Temperature  
Mean Temperature 61 °F 59 °F  
Max Temperature 70 °F 70 °F 87 °F (1952)
Min Temperature 52 °F 47 °F 32 °F (1909)
Degree Days  
Heating Degree Days 4 7  
Month to date heating degree days 48 77  
Since 1 July heating degree days 62 132  
Cooling Degree Days 0 1  
Month to date cooling degree days 44 19  
Year to date cooling degree days 1417 1378  
Growing Degree Days 11 (Base 50)    
Moisture  
Dew Point 43 °F    
Average Humidity 57    
Maximum Humidity 77    
Minimum Humidity 37    
Precipitation  
Precipitation 0.00 in 0.11 in 2.31 in (2012)
Month to date precipitation 2.95 1.51  
Year to date precipitation 43.28 36.23  
Snow  
Snow 0.00 in - - ()
Month to date snowfall 0.0  
Since 1 July snowfall 0.0  
Since 1 September snowfall 0.0  
Snow Depth 0.00 in    
Sea Level Pressure  
Sea Level Pressure 30.29 in    
Wind  
Wind Speed 9 mph (ENE)    
Max Wind Speed 18 mph    
Max Gust Speed 23 mph    
Visibility 10 miles    
Events      
T = Trace of Precipitation, MM = Missing Value Source: NWS Daily Summary

Daily Weather History Graph

Daily Weather History Graph

Search for Another Location

Airport or City:

Trip Planner

Search our weather history database for the weather conditions in past years. The results will help you decide how hot, cold, wet, or windy it might be!

Date:

Astronomy

Oct. 13, 2013 Rise Set
Actual Time 7:19 AM CDT 6:38 PM CDT
Civil Twilight 6:53 AM CDT 7:05 PM CDT
Nautical Twilight 6:23 AM CDT 7:35 PM CDT
Astronomical Twilight 5:53 AM CDT 8:05 PM CDT
Moon 3:24 PM CDT (10/13) 1:37 AM CDT (10/13)
Length of Visible Light 12h 11m
Length of Day
11h 19m
Waxing Gibbous, 69% of the Moon is Illuminated
Oct 13
Waxing Gibbous
Oct 18
Full
Oct 26
Last Quarter
Nov 3
New
Nov 9
First Quarter

Hourly Weather History & Observations

Time (CDT) Temp. Dew Point Humidity Pressure Visibility Wind Dir Wind Speed Gust Speed Precip Events Conditions
12:52 AM 53.1 °F 46.9 °F 80% 30.22 in 10.0 mi NE 4.6 mph - N/A   Scattered Clouds
1:52 AM 54.0 °F 46.0 °F 75% 30.23 in 10.0 mi ENE 4.6 mph - N/A   Partly Cloudy
2:52 AM 53.1 °F 45.0 °F 74% 30.24 in 10.0 mi Calm Calm - N/A   Partly Cloudy
3:52 AM 55.0 °F 43.0 °F 64% 30.23 in 10.0 mi ENE 8.1 mph - N/A   Mostly Cloudy
4:52 AM 55.9 °F 42.1 °F 60% 30.25 in 10.0 mi ENE 12.7 mph - N/A   Overcast
5:52 AM 57.0 °F 39.9 °F 53% 30.26 in 10.0 mi ENE 13.8 mph - N/A   Overcast
6:52 AM 57.0 °F 39.0 °F 51% 30.30 in 10.0 mi East 10.4 mph - N/A   Overcast
7:52 AM 57.0 °F 39.9 °F 53% 30.32 in 10.0 mi East 4.6 mph - N/A   Overcast
8:52 AM 57.0 °F 39.9 °F 53% 30.35 in 10.0 mi East 5.8 mph - N/A   Overcast
9:52 AM 59.0 °F 39.0 °F 48% 30.36 in 10.0 mi East 10.4 mph - N/A   Overcast
10:52 AM 61.0 °F 39.0 °F 44% 30.36 in 10.0 mi East 13.8 mph - N/A   Overcast
11:52 AM 64.0 °F 41.0 °F 43% 30.35 in 10.0 mi East 10.4 mph - N/A   Scattered Clouds
12:52 PM 66.0 °F 42.1 °F 42% 30.35 in 10.0 mi ENE 11.5 mph - N/A   Overcast
1:52 PM 68.0 °F 43.0 °F 40% 30.32 in 10.0 mi East 10.4 mph - N/A   Overcast
2:52 PM 68.0 °F 44.1 °F 42% 30.29 in 10.0 mi NE 10.4 mph - N/A   Scattered Clouds
3:52 PM 69.1 °F 43.0 °F 39% 30.27 in 10.0 mi ENE 12.7 mph - N/A   Clear
4:52 PM 68.0 °F 43.0 °F 40% 30.27 in 10.0 mi ENE 12.7 mph - N/A   Clear
5:52 PM 66.0 °F 46.0 °F 48% 30.27 in 10.0 mi NE 9.2 mph - N/A   Clear
6:52 PM 62.1 °F 45.0 °F 53% 30.27 in 10.0 mi ENE 8.1 mph - N/A   Clear
7:52 PM 60.1 °F 45.0 °F 57% 30.27 in 10.0 mi ENE 8.1 mph - N/A   Clear
8:52 PM 57.0 °F 45.0 °F 64% 30.29 in 10.0 mi East 5.8 mph - N/A   Clear
9:52 PM 55.0 °F 46.0 °F 72% 30.31 in 10.0 mi ESE 3.5 mph - N/A   Clear
10:52 PM 57.9 °F 43.0 °F 58% 30.30 in 10.0 mi East 8.1 mph - N/A   Clear
11:52 PM 59.0 °F 43.0 °F 55% 30.28 in 10.0 mi East 10.4 mph - N/A   Clear